Regional Weather Roundup
Issued by NWS Newport/Morehead, NC

Current Version | Previous Version | Graphics & Text | Print | Product List | Glossary Off
Versions: 1 2 3 4 5 6 7 8 9 10 11 12 13 14 15 16 17 18 19 20 21 22 23 24 25 26 27 28 29 30 31 32 33 34 35 36 37 38 39 40 41 42 43 44 45 46 47 48 49 50

240
ASUS42 KMHX 192210
RWRMHX
WEATHER ROUNDUP FOR EASTERN NORTH CAROLINA
NATIONAL WEATHER SERVICE NEWPORT/MOREHEAD CITY NC
500 PM EST FRI JAN 19 2018

NOTE: "FAIR" INDICATES FEW OR NO CLOUDS BELOW 12,000 FEET
WITH NO SIGNIFICANT WEATHER AND/OR OBSTRUCTIONS TO VISIBILITY

NCZ015>017-031-032-045>047-102-103-192300-
NORTH COAST

CITY           SKY/WX    TMP DP  RH WIND       PRES   REMARKS
EDENTON        FAIR      55  19  24 W5        30.12S
ELIZABETH CITY FAIR      48  33  56 SW8       30.11S
KITTY HAWK     FAIR      46  24  41 CALM      30.10S
MANTEO         FAIR      44  29  56 SW8       30.12F

$$

NCZ045>047-081-094-103-104-192300-
CENTRAL COAST

CITY           SKY/WX    TMP DP  RH WIND       PRES   REMARKS
FRISCO         FAIR      50  41  71 SW8       30.14F

$$

NCZ095-097-098-100-101-192300-
SOUTHERN COAST

CITY           SKY/WX    TMP DP  RH WIND       PRES   REMARKS
BEAUFORT       FAIR      48  39  71 SW7       30.16F
CEDAR ISLAND   NOT AVBL
JACKSONVILLE   FAIR      57  22  25 SW5       30.15F
PINEY ISLAND   NOT AVBL
WILMINGTON     FAIR      55  29  36 SW9       30.17S


$$

NCZ011>013-027>030-043-044-078>080-089-090>093-098-192300-
COASTAL PLAIN

CITY           SKY/WX    TMP DP  RH WIND       PRES   REMARKS
AHOSKIE        FAIR      47  23  39 CALM      30.12S
CLINTON        FAIR      54  28  35 CALM      30.16S
ELIZABETHTOWN  NOT AVBL
GOLDSBORO      FAIR      53  23  30 SW8       30.12F
GREENVILLE     FAIR      54  19  26 SW8       30.14S
HAVELOCK       NOT AVBL
KENANSVILLE    FAIR      54  25  32 SW3       30.15F
KINSTON        FAIR      54  21  28 SW6       30.16R
NEW BERN       FAIR      53  24  32 SW7       30.15S
RICHLANDS      FAIR      54  27  35 SW3       30.16S
ROCKY MOUNT    NOT AVBL
WASHINGTON     FAIR      54  18  24 SW8       30.13F
WHITEVILLE     FAIR      57  21  24 SW3       30.16S

$$

AMZ130-135-150-152-154-156-158-170-250-252-270-ANZ085-086-088-633-658-670-192300-
MARINE OBSERVATIONS

STATION/POSITION TIME  TEMP    WIND        PRES    WAVE   SWELL
                       AIR SEA DIR/SP/G            HT/PER HT/PER
                 (UTC) (F)     (DEG/KT/KT) (MB)    (FT/S) (FT/S)
CHESAPEAKE LIGHT NOT AVBL
64 E VA BEACH    NOT AVBL
DUCK             NOT AVBL
2 E DUCK         NOT AVBL
OREGON INLET     NOT AVBL
13E OREGON INLT  NOT AVBL
HATTERAS CG      NOT AVBL
DIAMOND BUOY     NOT AVBL
CAPE LOOKOUT     NOT AVBL
BEAUFORT LAB     NOT AVBL
30 SE NEW RVR IN NOT AVBL
30 SE NEW RVR IN NOT AVBL
27 SE WRIGHTSVLE NOT AVBL
5 SE WRIGHTSVLE  NOT AVBL
225 S CAPE HAT   NOT AVBL
41 SE CHARLESTON NOT AVBL

$$




USA.gov is the U.S. government's official web portal to all federal, state and local government web resources and services.